When you browse on this site, cookies collect data to enhance your experience and personalize the content and advertising you see.
Visit our Privacy Policy to learn more. By continuing to use the site, you agree to this use of cookies and data.
  • In Sweden
  • List of Countries
  • For 7 days
  • Water Temperature
  • Weather Map
  • Weather Widgets
  • user-avatar
    Login

    Hourly Weather Vitebsk

    Today, 6 June, Saturday

    Time Temperature Precipitation Wind Pressure Humidity
    00:00 +11°C° 0 mm 4 mps 739 mmHg 89%
    01:00 +12°C° 0 mm 4 mps 739 mmHg 89%
    02:00 +12°C° 0 mm 4 mps 739 mmHg 94%
    03:00 +13°C° 0 mm 4 mps 739 mmHg 94%
    04:00 +13°C° 0 mm 4 mps 739 mmHg 94%
    05:00 +14°C° 0 mm 5 mps 738 mmHg 94%
    06:00 +15°C° 0.2 mm 5 mps 738 mmHg 93%
    07:00 +15°C° 0.2 mm 5 mps 739 mmHg 93%
    08:00 +17°C° 0 mm 4 mps 739 mmHg 91%
    09:00 +17°C° 1.7 mm 4 mps 739 mmHg 93%
    10:00 +15°C° 1.7 mm 4 mps 740 mmHg 95%
    11:00 +15°C° 1.7 mm 4 mps 740 mmHg 96%
    12:00 +18°C° 0.2 mm 4 mps 740 mmHg 92%
    13:00 +19°C° 0.2 mm 4 mps 740 mmHg 88%
    14:00 +21°C° 0.2 mm 5 mps 740 mmHg 83%
    15:00 +21°C° 0.3 mm 4 mps 741 mmHg 81%
    16:00 +22°C° 0.3 mm 4 mps 741 mmHg 78%
    17:00 +22°C° 0.3 mm 4 mps 741 mmHg 76%
    18:00 +20°C° 0.1 mm 3 mps 741 mmHg 79%
    19:00 +19°C° 0.1 mm 3 mps 742 mmHg 82%
    20:00 +17°C° 0.1 mm 2 mps 743 mmHg 85%
    21:00 +16°C° 0 mm 2 mps 743 mmHg 87%
    22:00 +15°C° 0 mm 2 mps 743 mmHg 89%
    23:00 +14°C° 0 mm 2 mps 744 mmHg 90%

    Tomorrow, 7 June, Sunday

    Time Temperature Precipitation Wind Pressure Humidity
    00:00 +14°C° 0 mm 1 mps 744 mmHg 91%
    01:00 +13°C° 0 mm 1 mps 745 mmHg 91%
    02:00 +12°C° 0 mm 1 mps 745 mmHg 92%
    03:00 +13°C° 0 mm 1 mps 746 mmHg 91%
    04:00 +13°C° 0 mm 1 mps 746 mmHg 90%
    05:00 +14°C° 0 mm 1 mps 746 mmHg 89%
    06:00 +16°C° 0 mm 1 mps 746 mmHg 83%
    07:00 +19°C° 0 mm 1 mps 747 mmHg 78%
    08:00 +19°C° 0 mm 2 mps 747 mmHg 72%
    09:00 +21°C° 0 mm 2 mps 747 mmHg 68%
    10:00 +23°C° 0 mm 2 mps 747 mmHg 64%
    11:00 +24°C° 0 mm 2 mps 748 mmHg 60%
    12:00 +24°C° 0 mm 3 mps 748 mmHg 62%
    13:00 +24°C° 0 mm 3 mps 748 mmHg 64%
    14:00 +24°C° 0 mm 3 mps 747 mmHg 66%
    15:00 +24°C° 0 mm 3 mps 747 mmHg 67%
    16:00 +24°C° 0 mm 3 mps 747 mmHg 68%
    17:00 +23°C° 0 mm 4 mps 747 mmHg 69%
    18:00 +21°C° 0 mm 3 mps 746 mmHg 75%
    19:00 +20°C° 0 mm 3 mps 746 mmHg 80%
    20:00 +18°C° 0 mm 3 mps 746 mmHg 86%
    21:00 +18°C° 0 mm 3 mps 746 mmHg 87%
    22:00 +17°C° 0 mm 3 mps 746 mmHg 88%
    23:00 +17°C° 0 mm 3 mps 746 mmHg 90%

    Day after tomorrow, 8 June, Monday

    Time Temperature Precipitation Wind Pressure Humidity
    00:00 +17°C° 0 mm 3 mps 746 mmHg 91%
    01:00 +17°C° 0 mm 3 mps 746 mmHg 92%
    02:00 +17°C° 0 mm 3 mps 746 mmHg 94%
    03:00 +17°C° 0 mm 3 mps 746 mmHg 94%
    04:00 +17°C° 0 mm 3 mps 746 mmHg 94%
    05:00 +17°C° 0 mm 3 mps 746 mmHg 94%
    06:00 +19°C° 0 mm 4 mps 746 mmHg 89%
    07:00 +21°C° 0 mm 4 mps 746 mmHg 84%
    08:00 +22°C° 0 mm 4 mps 746 mmHg 79%
    09:00 +23°C° 0 mm 4 mps 746 mmHg 74%
    10:00 +26°C° 0 mm 4 mps 747 mmHg 70%
    11:00 +27°C° 0 mm 5 mps 747 mmHg 65%
    12:00 +27°C° 0 mm 5 mps 746 mmHg 64%
    13:00 +28°C° 0 mm 5 mps 746 mmHg 63%
    14:00 +28°C° 0 mm 4 mps 746 mmHg 61%
    15:00 +28°C° 0 mm 4 mps 746 mmHg 64%
    16:00 +28°C° 0 mm 4 mps 746 mmHg 67%
    17:00 +27°C° 0 mm 3 mps 746 mmHg 70%
    18:00 +26°C° 0.7 mm 3 mps 746 mmHg 76%
    19:00 +24°C° 0.7 mm 3 mps 746 mmHg 83%
    20:00 +22°C° 0.7 mm 3 mps 745 mmHg 89%
    21:00 +21°C° 0.3 mm 2 mps 746 mmHg 91%
    22:00 +20°C° 0.3 mm 2 mps 746 mmHg 92%
    23:00 +20°C° 0.3 mm 2 mps 746 mmHg 94%

    9 June, Tuesday

    Time Temperature Precipitation Wind Pressure Humidity
    00:00 +19°C° 0 mm 2 mps 746 mmHg 94%
    01:00 +19°C° 0 mm 2 mps 746 mmHg 94%
    02:00 +18°C° 0 mm 2 mps 746 mmHg 94%
    03:00 +18°C° 0 mm 2 mps 746 mmHg 94%
    04:00 +19°C° 0 mm 2 mps 746 mmHg 94%
    05:00 +19°C° 0 mm 2 mps 746 mmHg 94%
    06:00 +20°C° 0 mm 2 mps 746 mmHg 90%
    07:00 +23°C° 0 mm 2 mps 747 mmHg 86%
    08:00 +24°C° 0 mm 2 mps 747 mmHg 82%
    09:00 +26°C° 0 mm 2 mps 747 mmHg 76%
    10:00 +27°C° 0 mm 3 mps 747 mmHg 70%
    11:00 +28°C° 0 mm 3 mps 747 mmHg 65%
    12:00 +28°C° 0.2 mm 3 mps 747 mmHg 64%
    13:00 +28°C° 0.2 mm 3 mps 747 mmHg 64%
    14:00 +29°C° 0.2 mm 3 mps 747 mmHg 63%
    15:00 +28°C° 0.3 mm 2 mps 747 mmHg 65%
    16:00 +28°C° 0.3 mm 2 mps 747 mmHg 66%
    17:00 +28°C° 0.3 mm 1 mps 747 mmHg 68%
    18:00 +26°C° 0 mm 1 mps 747 mmHg 73%
    19:00 +25°C° 0 mm 1 mps 747 mmHg 78%
    20:00 +23°C° 0 mm 1 mps 747 mmHg 83%
    21:00 +22°C° 0 mm 1 mps 747 mmHg 85%
    22:00 +21°C° 0 mm 1 mps 747 mmHg 87%
    23:00 +21°C° 0 mm 1 mps 747 mmHg 89%

    10 June, Wednesday

    Time Temperature Precipitation Wind Pressure Humidity
    00:00 +20°C° 0 mm 1 mps 747 mmHg 90%
    01:00 +20°C° 0 mm 1 mps 747 mmHg 91%
    02:00 +19°C° 0 mm 1 mps 747 mmHg 92%
    03:00 +20°C° 0 mm 1 mps 747 mmHg 91%
    04:00 +20°C° 0 mm 1 mps 747 mmHg 91%
    05:00 +20°C° 0 mm 1 mps 747 mmHg 91%
    06:00 +22°C° 0 mm 1 mps 747 mmHg 86%
    07:00 +24°C° 0 mm 1 mps 747 mmHg 81%
    08:00 +25°C° 0 mm 1 mps 747 mmHg 76%
    09:00 +26°C° 0.1 mm 1 mps 747 mmHg 71%
    10:00 +27°C° 0.1 mm 1 mps 747 mmHg 66%
    11:00 +29°C° 0.1 mm 1 mps 747 mmHg 60%
    12:00 +29°C° 0.1 mm 1 mps 747 mmHg 61%
    13:00 +28°C° 0.1 mm 1 mps 746 mmHg 62%
    14:00 +28°C° 0.1 mm 1 mps 746 mmHg 62%
    15:00 +28°C° 0.3 mm 2 mps 746 mmHg 64%
    16:00 +28°C° 0.3 mm 2 mps 746 mmHg 66%
    17:00 +28°C° 0.3 mm 2 mps 746 mmHg 68%
    18:00 +26°C° 0.4 mm 2 mps 746 mmHg 75%
    19:00 +25°C° 0.4 mm 2 mps 746 mmHg 81%
    20:00 +23°C° 0.4 mm 2 mps 746 mmHg 88%
    21:00 +21°C° 0 mm 2 mps 746 mmHg 90%
    22:00 +21°C° 0 mm 1 mps 746 mmHg 91%
    23:00 +21°C° 0 mm 1 mps 746 mmHg 93%

    11 June, Thursday

    Time Temperature Precipitation Wind Pressure Humidity
    00:00 +20°C° 0.2 mm 1 mps 746 mmHg 94%
    01:00 +19°C° 0.2 mm 2 mps 745 mmHg 94%
    02:00 +18°C° 0.2 mm 2 mps 745 mmHg 95%
    03:00 +19°C° 0 mm 2 mps 745 mmHg 95%
    04:00 +19°C° 0 mm 2 mps 745 mmHg 95%
    05:00 +19°C° 0 mm 2 mps 745 mmHg 95%
    06:00 +20°C° 0 mm 2 mps 745 mmHg 91%
    07:00 +23°C° 0 mm 2 mps 745 mmHg 86%
    08:00 +24°C° 0 mm 2 mps 746 mmHg 81%
    09:00 +26°C° 0.2 mm 2 mps 745 mmHg 76%
    10:00 +27°C° 0.2 mm 2 mps 745 mmHg 71%
    11:00 +28°C° 0.2 mm 2 mps 745 mmHg 65%
    12:00 +28°C° 0.4 mm 3 mps 745 mmHg 64%
    13:00 +29°C° 0.4 mm 3 mps 745 mmHg 64%
    14:00 +29°C° 0.4 mm 3 mps 744 mmHg 63%
    15:00 +29°C° 0.4 mm 3 mps 744 mmHg 66%
    16:00 +28°C° 0.4 mm 2 mps 744 mmHg 70%
    17:00 +28°C° 0.4 mm 2 mps 744 mmHg 74%
    18:00 +27°C° 0.2 mm 2 mps 744 mmHg 78%
    19:00 +25°C° 0.2 mm 2 mps 744 mmHg 83%
    20:00 +24°C° 0.2 mm 2 mps 744 mmHg 87%
    21:00 +23°C° 0.6 mm 2 mps 744 mmHg 89%
    22:00 +21°C° 0.6 mm 2 mps 744 mmHg 91%
    23:00 +20°C° 0.6 mm 2 mps 744 mmHg 93%
    Show more